Time,TemperatureF,DewpointF,PressureIn,WindDirection,WindDirectionDegrees,WindSpeedMPH,WindSpeedGustMPH,Humidity,HourlyPrecipIn,Conditions,Clouds,dailyrainin,SoftwareType,DateUTC
2013-01-30 00:10:00,44.5,43.0,30.20,NW,307,3.0,6.0,93,0.01,,,0.01,weatherlink.com 1.10,2013-01-30 08:10:00,
2013-01-30 00:25:00,44.4,43.0,30.21,North,350,1.0,4.0,94,0.01,,,0.01,weatherlink.com 1.10,2013-01-30 08:25:00,
2013-01-30 00:40:00,44.3,43.0,30.21,SSE,152,0.0,2.0,94,0.01,,,0.01,weatherlink.com 1.10,2013-01-30 08:40:00,
2013-01-30 00:55:00,44.0,43.0,30.22,NNW,344,3.0,4.0,95,0.01,,,0.02,weatherlink.com 1.10,2013-01-30 08:55:00,
2013-01-30 01:10:00,44.1,43.0,30.21,NW,325,1.0,4.0,95,0.01,,,0.02,weatherlink.com 1.10,2013-01-30 09:10:00,
2013-01-30 01:25:00,44.4,43.0,30.21,WNW,302,2.0,5.0,95,0.01,,,0.02,weatherlink.com 1.10,2013-01-30 09:25:00,
2013-01-30 01:40:00,44.2,43.0,30.21,NNW,330,3.0,5.0,95,0.01,,,0.03,weatherlink.com 1.10,2013-01-30 09:40:00,
2013-01-30 01:55:00,44.2,43.0,30.21,NNW,330,2.0,3.0,95,0.01,,,0.03,weatherlink.com 1.10,2013-01-30 09:55:00,
2013-01-30 02:10:00,44.4,43.0,30.22,NW,316,0.0,5.0,95,0.01,,,0.03,weatherlink.com 1.10,2013-01-30 10:10:00,
2013-01-30 02:25:00,44.7,43.0,30.22,NE,37,14.0,14.0,94,0.01,,,0.03,weatherlink.com 1.10,2013-01-30 10:25:00,
2013-01-30 02:40:00,45.0,43.0,30.22,NNW,344,7.0,12.0,93,0.00,,,0.03,weatherlink.com 1.10,2013-01-30 10:40:00,
2013-01-30 02:55:00,44.9,43.0,30.22,NNW,329,1.0,9.0,93,0.00,,,0.03,weatherlink.com 1.10,2013-01-30 10:55:00,
2013-01-30 03:10:00,44.9,43.0,30.22,NW,311,2.0,7.0,92,0.00,,,0.03,weatherlink.com 1.10,2013-01-30 11:10:00,
2013-01-30 03:25:00,45.0,43.0,30.22,WNW,302,3.0,7.0,92,0.00,,,0.03,weatherlink.com 1.10,2013-01-30 11:25:00,
2013-01-30 03:40:00,44.8,43.0,30.23,NW,310,6.0,8.0,92,0.00,,,0.03,weatherlink.com 1.10,2013-01-30 11:40:00,
2013-01-30 03:56:00,44.7,43.0,30.23,NNW,327,5.0,9.0,93,0.00,,,0.03,weatherlink.com 1.10,2013-01-30 11:56:00,
2013-01-30 04:10:00,45.0,43.0,30.21,NNW,333,5.0,14.0,92,0.00,,,0.03,weatherlink.com 1.10,2013-01-30 12:10:00,
2013-01-30 04:25:00,44.7,43.0,30.22,NNW,329,4.0,7.0,93,0.00,,,0.03,weatherlink.com 1.10,2013-01-30 12:25:00,
2013-01-30 04:41:00,44.8,43.0,30.22,NNW,332,3.0,10.0,93,0.00,,,0.03,weatherlink.com 1.10,2013-01-30 12:41:00,
2013-01-30 04:55:00,44.8,43.0,30.21,NW,307,3.0,7.0,92,0.00,,,0.03,weatherlink.com 1.10,2013-01-30 12:55:00,
2013-01-30 05:10:00,44.7,43.0,30.21,NNW,331,5.0,6.0,92,0.00,,,0.03,weatherlink.com 1.10,2013-01-30 13:10:00,
2013-01-30 05:26:00,44.7,43.0,30.22,NW,318,4.0,7.0,92,0.00,,,0.03,weatherlink.com 1.10,2013-01-30 13:26:00,
2013-01-30 05:40:00,44.6,43.0,30.22,NW,318,4.0,6.0,92,0.00,,,0.03,weatherlink.com 1.10,2013-01-30 13:40:00,
2013-01-30 05:56:00,44.8,43.0,30.22,NNW,328,7.0,9.0,92,0.00,,,0.03,weatherlink.com 1.10,2013-01-30 13:56:00,
2013-01-30 06:11:00,44.9,43.0,30.22,NNW,342,7.0,11.0,92,0.00,,,0.03,weatherlink.com 1.10,2013-01-30 14:11:00,
2013-01-30 06:26:00,44.9,43.0,30.22,NNW,333,8.0,12.0,92,0.00,,,0.03,weatherlink.com 1.10,2013-01-30 14:26:00,
2013-01-30 06:40:00,44.9,43.0,30.22,NW,306,6.0,10.0,92,0.00,,,0.03,weatherlink.com 1.10,2013-01-30 14:40:00,
2013-01-30 06:55:00,45.1,43.0,30.22,WNW,298,9.0,12.0,91,0.00,,,0.03,weatherlink.com 1.10,2013-01-30 14:55:00,
2013-01-30 07:10:00,45.1,43.0,30.23,NNW,329,10.0,12.0,91,0.00,,,0.03,weatherlink.com 1.10,2013-01-30 15:10:00,
2013-01-30 07:25:00,44.8,43.0,30.23,NW,323,7.0,10.0,92,0.00,,,0.03,weatherlink.com 1.10,2013-01-30 15:25:00,
2013-01-30 07:40:00,44.8,43.0,30.23,NW,311,7.0,10.0,93,0.00,,,0.03,weatherlink.com 1.10,2013-01-30 15:40:00,
2013-01-30 07:55:00,44.9,43.0,30.23,NW,317,5.0,8.0,93,0.00,,,0.03,weatherlink.com 1.10,2013-01-30 15:55:00,
2013-01-30 08:11:00,44.9,43.0,30.23,NW,325,6.0,9.0,93,0.00,,,0.03,weatherlink.com 1.10,2013-01-30 16:11:00,
2013-01-30 08:26:00,45.1,43.0,30.24,NW,313,5.0,9.0,93,0.00,,,0.03,weatherlink.com 1.10,2013-01-30 16:26:00,
2013-01-30 08:41:00,45.4,43.0,30.25,NW,315,7.0,11.0,92,0.00,,,0.03,weatherlink.com 1.10,2013-01-30 16:41:00,
2013-01-30 08:55:00,45.5,43.0,30.25,NW,325,5.0,10.0,92,0.00,,,0.03,weatherlink.com 1.10,2013-01-30 16:55:00,
2013-01-30 09:11:00,45.4,43.0,30.25,WNW,297,7.0,8.0,92,0.00,,,0.03,weatherlink.com 1.10,2013-01-30 17:11:00,
2013-01-30 09:25:00,45.4,43.0,30.25,NW,325,7.0,8.0,92,0.00,,,0.03,weatherlink.com 1.10,2013-01-30 17:25:00,
2013-01-30 09:40:00,45.5,43.0,30.26,NW,324,5.0,9.0,92,0.00,,,0.03,weatherlink.com 1.10,2013-01-30 17:40:00,
2013-01-30 09:56:00,45.7,44.0,30.26,NW,311,4.0,7.0,92,0.00,,,0.03,weatherlink.com 1.10,2013-01-30 17:56:00,
2013-01-30 10:11:00,46.1,44.0,30.26,NW,309,5.0,7.0,92,0.00,,,0.03,weatherlink.com 1.10,2013-01-30 18:11:00,
2013-01-30 10:26:00,45.9,44.0,30.25,NNW,336,6.0,7.0,92,0.00,,,0.03,weatherlink.com 1.10,2013-01-30 18:26:00,
2013-01-30 10:41:00,46.1,44.0,30.26,NW,316,6.0,10.0,92,0.00,,,0.03,weatherlink.com 1.10,2013-01-30 18:41:00,
2013-01-30 10:56:00,46.3,44.0,30.26,NNW,329,6.0,11.0,92,0.00,,,0.03,weatherlink.com 1.10,2013-01-30 18:56:00,
2013-01-30 11:11:00,46.5,44.0,30.27,NNW,333,6.0,7.0,92,0.00,,,0.03,weatherlink.com 1.10,2013-01-30 19:11:00,
2013-01-30 11:26:00,46.6,45.0,30.27,NNE,15,11.0,11.0,93,0.00,,,0.03,weatherlink.com 1.10,2013-01-30 19:26:00,
2013-01-30 11:41:00,46.5,45.0,30.27,NNW,330,6.0,10.0,93,0.00,,,0.03,weatherlink.com 1.10,2013-01-30 19:41:00,
2013-01-30 11:56:00,46.7,45.0,30.27,NNE,12,8.0,10.0,93,0.00,,,0.03,weatherlink.com 1.10,2013-01-30 19:56:00,
2013-01-30 12:11:00,46.7,45.0,30.27,North,355,6.0,10.0,92,0.00,,,0.03,weatherlink.com 1.10,2013-01-30 20:11:00,
2013-01-30 12:26:00,46.7,45.0,30.26,North,350,7.0,10.0,92,0.00,,,0.03,weatherlink.com 1.10,2013-01-30 20:26:00,
2013-01-30 12:41:00,47.0,45.0,30.26,NNE,17,5.0,9.0,92,0.00,,,0.03,weatherlink.com 1.10,2013-01-30 20:41:00,
2013-01-30 13:11:00,47.1,45.0,30.27,NNW,344,6.0,10.0,92,0.00,,,0.03,weatherlink.com 1.10,2013-01-30 21:11:00,
2013-01-30 13:26:00,47.1,45.0,30.27,North,5,6.0,10.0,92,0.00,,,0.03,weatherlink.com 1.10,2013-01-30 21:26:00,
2013-01-30 13:56:00,46.9,45.0,30.27,North,5,5.0,7.0,92,0.00,,,0.03,weatherlink.com 1.10,2013-01-30 21:56:00,
2013-01-30 14:26:00,46.9,45.0,30.26,NNE,12,5.0,6.0,92,0.00,,,0.03,weatherlink.com 1.10,2013-01-30 22:26:00,
2013-01-30 14:41:00,47.1,45.0,30.26,NNW,343,4.0,6.0,92,0.00,,,0.03,weatherlink.com 1.10,2013-01-30 22:41:00,
2013-01-30 14:56:00,47.1,45.0,30.26,NNW,334,4.0,6.0,92,0.00,,,0.03,weatherlink.com 1.10,2013-01-30 22:56:00,
2013-01-30 15:11:00,47.0,45.0,30.27,NNW,340,4.0,4.0,92,0.00,,,0.03,weatherlink.com 1.10,2013-01-30 23:11:00,
2013-01-30 15:26:00,47.2,45.0,30.26,NNW,333,4.0,6.0,92,0.00,,,0.03,weatherlink.com 1.10,2013-01-30 23:26:00,
2013-01-30 15:41:00,47.1,45.0,30.26,NW,313,3.0,6.0,92,0.00,,,0.03,weatherlink.com 1.10,2013-01-30 23:41:00,
2013-01-30 15:56:00,47.1,45.0,30.26,NW,312,3.0,4.0,92,0.00,,,0.03,weatherlink.com 1.10,2013-01-30 23:56:00,
2013-01-30 16:11:00,47.1,45.0,30.26,NNW,334,4.0,4.0,92,0.00,,,0.03,weatherlink.com 1.10,2013-01-31 00:11:00,
2013-01-30 16:26:00,47.0,45.0,30.26,NW,325,3.0,5.0,92,0.00,,,0.03,weatherlink.com 1.10,2013-01-31 00:26:00,
2013-01-30 16:41:00,47.1,45.0,30.26,WNW,286,4.0,8.0,93,0.00,,,0.03,weatherlink.com 1.10,2013-01-31 00:41:00,
2013-01-30 16:56:00,47.1,45.0,30.27,NNW,331,4.0,6.0,93,0.00,,,0.03,weatherlink.com 1.10,2013-01-31 00:56:00,
2013-01-30 17:11:00,46.8,45.0,30.27,NNE,17,5.0,6.0,93,0.00,,,0.03,weatherlink.com 1.10,2013-01-31 01:11:00,
2013-01-30 17:29:00,46.7,45.0,30.26,NNW,334,4.0,6.0,94,0.00,,,0.03,weatherlink.com 1.10,2013-01-31 01:29:00,
2013-01-30 17:41:00,46.8,45.0,30.26,NNW,329,4.0,6.0,94,0.00,,,0.03,weatherlink.com 1.10,2013-01-31 01:41:00,
2013-01-30 17:56:00,46.9,46.0,30.26,NNW,331,5.0,10.0,95,0.00,,,0.03,weatherlink.com 1.10,2013-01-31 01:56:00,
2013-01-30 18:11:00,46.8,46.0,30.26,NNW,345,8.0,9.0,95,0.00,,,0.03,weatherlink.com 1.10,2013-01-31 02:11:00,
2013-01-30 18:26:00,46.6,45.0,30.26,NNW,346,7.0,8.0,95,0.00,,,0.03,weatherlink.com 1.10,2013-01-31 02:26:00,
2013-01-30 18:41:00,46.6,45.0,30.25,NNW,336,6.0,8.0,95,0.00,,,0.03,weatherlink.com 1.10,2013-01-31 02:41:00,
2013-01-30 18:56:00,46.7,45.0,30.25,NNW,341,8.0,8.0,95,0.00,,,0.03,weatherlink.com 1.10,2013-01-31 02:56:00,
2013-01-30 19:11:00,46.8,46.0,30.25,NNW,340,3.0,6.0,95,0.00,,,0.03,weatherlink.com 1.10,2013-01-31 03:11:00,
2013-01-30 19:26:00,47.0,45.0,30.25,NNW,331,4.0,7.0,94,0.00,,,0.03,weatherlink.com 1.10,2013-01-31 03:26:00,
2013-01-30 19:41:00,46.9,45.0,30.25,NNW,344,4.0,7.0,94,0.00,,,0.03,weatherlink.com 1.10,2013-01-31 03:41:00,
2013-01-30 19:56:00,47.0,45.0,30.25,NE,36,4.0,7.0,94,0.00,,,0.03,weatherlink.com 1.10,2013-01-31 03:56:00,
2013-01-30 20:11:00,46.9,45.0,30.26,NNE,30,4.0,7.0,94,0.00,,,0.03,weatherlink.com 1.10,2013-01-31 04:11:00,
2013-01-30 20:26:00,46.4,45.0,30.26,NNE,26,5.0,7.0,95,0.00,,,0.03,weatherlink.com 1.10,2013-01-31 04:26:00,
2013-01-30 20:41:00,46.6,45.0,30.26,North,9,7.0,9.0,95,0.00,,,0.03,weatherlink.com 1.10,2013-01-31 04:41:00,
2013-01-30 20:56:00,46.3,45.0,30.26,NE,34,5.0,8.0,95,0.00,,,0.03,weatherlink.com 1.10,2013-01-31 04:56:00,
2013-01-30 21:11:00,46.5,46.0,30.26,NNE,24,4.0,8.0,96,0.00,,,0.03,weatherlink.com 1.10,2013-01-31 05:11:00,
2013-01-30 21:26:00,46.5,45.0,30.26,NNW,340,5.0,7.0,95,0.00,,,0.03,weatherlink.com 1.10,2013-01-31 05:26:00,
2013-01-30 21:41:00,46.5,45.0,30.26,NNE,30,4.0,7.0,95,0.00,,,0.03,weatherlink.com 1.10,2013-01-31 05:41:00,
2013-01-30 21:56:00,46.5,45.0,30.26,NNW,332,4.0,7.0,95,0.00,,,0.03,weatherlink.com 1.10,2013-01-31 05:56:00,
2013-01-30 22:11:00,46.5,45.0,30.26,NNE,13,6.0,8.0,95,0.00,,,0.03,weatherlink.com 1.10,2013-01-31 06:11:00,
2013-01-30 22:26:00,46.5,45.0,30.26,NNE,17,4.0,8.0,94,0.00,,,0.03,weatherlink.com 1.10,2013-01-31 06:26:00,
2013-01-30 22:41:00,46.7,45.0,30.25,NNW,345,7.0,8.0,94,0.00,,,0.03,weatherlink.com 1.10,2013-01-31 06:41:00,
2013-01-30 22:56:00,46.7,45.0,30.26,NNE,20,7.0,10.0,94,0.00,,,0.00,weatherlink.com 1.10,2013-01-31 06:56:00,
2013-01-30 23:12:00,46.8,45.0,30.26,NNE,27,4.0,8.0,94,0.00,,,0.00,weatherlink.com 1.10,2013-01-31 07:12:00,
2013-01-30 23:27:00,46.5,45.0,30.26,NNW,333,4.0,8.0,93,0.00,,,0.00,weatherlink.com 1.10,2013-01-31 07:27:00,
2013-01-30 23:41:00,46.6,45.0,30.26,NNW,335,3.0,8.0,94,0.00,,,0.00,weatherlink.com 1.10,2013-01-31 07:41:00,
2013-01-30 23:56:00,46.5,45.0,30.25,NNW,333,5.0,7.0,94,0.00,,,0.00,weatherlink.com 1.10,2013-01-31 07:56:00,